Vertical_Velocity
-2 -1 -0 -2 -1 -2 -3 -3 2 -3 2 -7 4 1 6 4 0 3 -1 -2 -3 0 2 -5 3 -4 -2 -4 -5 6 -1 3 -1 6 -4 31 -9 2 12 1 -1 -4 1 1
0 2 1 -1 2 -0 -3 -3 -2 -2 -12 23 -9 -6 1 0 1 -1 -1 -2 -1 -3 -1 -1 4 -4 -4 -2 -0 1 2 -6 -9 0 5 1 14 3 -2 3 5 3 4 3
1 -4 -4 -1 2 1 3 5 7 3 8 -10 -0 3 -1 -2 -1 -1 0 -1 0 1 -2 5 1 -3 -2 -4 -1 -0 0 2 7 6 16 4 -4 -4 24 1 0 5 -0 4
3 -1 3 -1 -2 -2 -3 -0 -3 -0 -4 -4 -3 4 -2 0 -1 -1 3 3 -1 0 1 1 0 -2 -2 -3 -2 0 3 4 2 1 -2 -4 2 -1 4 15 43 55 1 -10
2 -1 2 -5 -3 -4 -4 -7 -3 -3 -2 -4 -2 2 1 0 1 4 3 1 1 2 3 1 -1 1 -0 -1 -1 3 3 2 1 3 1 -3 -4 -5 -0 3 -1 13 4 23
-1 2 -0 2 -3 -3 -2 2 -2 -0 0 -1 3 16 1 3 2 1 0 -1 4 5 3 1 1 1 -1 0 1 3 1 -0 1 -0 1 2 3 5 6 14 21 15 18 16
-1 1 -0 -1 1 -0 8 5 -1 -4 -2 1 0 2 1 1 1 2 1 4 4 3 4 -0 1 -1 -1 0 3 -0 -1 -4 -1 -1 0 0 -0 3 6 5 6 7 11 25
2 0 8 -0 -1 2 -1 0 -1 -1 -0 3 3 2 2 1 1 1 4 4 2 4 2 1 1 -1 -0 3 -0 -1 -2 -3 -1 -2 0 1 0 -0 -3 2 5 5 2 10
-3 -2 -2 -3 -0 -0 0 -1 -0 1 2 3 3 1 -1 2 2 3 4 3 1 2 0 2 1 0 0 -1 0 1 2 -2 0 -2 -1 -1 0 1 -0 -3 -6 -4 -4 -0
-2 -2 -1 -1 -1 -1 -2 -1 -1 -0 -1 -2 1 -1 1 2 4 3 -1 1 1 -1 -0 0 0 -0 -0 -2 -1 -1 -1 -2 -0 0 1 0 0 -2 -1 -1 2 3 -2 0
-2 -2 -2 -2 0 -1 -1 -0 1 1 -1 -0 -0 2 2 1 2 1 2 1 -1 -0 3 2 -0 1 1 1 -0 -1 -0 0 1 1 -1 -1 1 1 -0 -1 -4 -4 -4 -3
-3 -1 -2 -2 -0 1 -0 1 1 -0 0 1 -0 -0 1 1 0 2 -0 1 1 2 -3 -2 1 -0 -1 -1 -0 -1 0 -1 -2 -2 -1 -1 -2 -3 -2 -2 -0 -1 -0 -0
-1 -0 -1 -1 -1 -1 -1 -0 0 -1 -1 -0 -1 0 -1 -1 -0 1 0 -1 0 1 2 2 2 1 -0 -2 -2 -3 -4 -1 2 1 -1 0 -2 -1 -1 -4 -2 -2 -0 -0
-2 0 -2 -2 -2 -1 -3 0 1 1 0 -1 -1 -1 -1 0 -0 -1 -1 -1 -1 -2 -2 -2 -3 -0 -0 -1 -1 -2 -0 0 -1 -1 -2 -0 -1 -1 0 1 -0 -1 -1 -2
-1 -2 0 -1 -1 -1 -0 0 1 -0 -2 -2 -1 -1 -0 -0 -1 -1 -1 1 1 1 -1 -1 -1 -4 -8 -6 -2 -4 -3 1 -1 -1 0 -1 -0 -1 -2 -2 1 -2 -0 -0
1 -1 -1 -1 -0 -0 -1 1 1 1 1 -1 -0 -1 -1 -4 -2 -2 -2 -1 -0 -3 -2 -3 -1 1 4 -4 5 -4 -3 -2 -3 -3 -3 -1 -0 -2 -3 -2 -1 -3 -4 -4
1 1 0 0 0 0 -0 -1 -1 -2 -1 -1 -0 -1 -2 -1 -0 -1 -2 -5 -3 -2 -1 -3 -4 -2 -2 -1 -2 -1 -1 -2 -3 -2 -2 -3 -4 -4 -2 -2 -1 -2 -1 -1
2 1 1 1 1 1 -1 -1 0 -0 -1 0 0 -1 -3 -3 -1 -2 1 0 -2 -1 -1 -1 -2 -2 -2 -2 -2 -3 -3 -5 -3 -2 -3 -4 -4 -2 -1 -1 -2 -1 -0 -1
2 1 2 0 -1 -1 -1 -1 -0 -1 -0 1 -0 -2 -1 2 0 0 -1 -2 -2 -3 -4 -3 -2 -2 -2 -3 -3 -3 -3 -2 -2 -3 -3 -3 -4 -4 -4 -4 -3 -2 -2 -1
1 1 1 1 0 0 0 0 2 1 -1 -1 -1 1 1 -0 -2 -2 -2 -2 -2 -2 -2 -1 -1 -2 -2 -2 -2 -2 -2 -2 -3 -3 -3 -3 -2 -2 -2 -2 -3 -3 -2 -1
0 -0 -0 1 2 0 -0 0 0 -0 0 1 -0 1 -0 -1 -2 -1 -0 -0 -0 -1 -2 -1 -1 -3 -2 -2 -2 -2 -2 -2 -2 -1 -1 -1 -1 -1 -2 -2 -2 -1 -1 -1
2 1 0 1 0 1 -1 -0 1 0 -1 0 2 0 -1 -1 -0 -1 -2 -2 -2 -1 -2 -2 -2 -1 -3 -3 -3 -3 -2 -2 -2 -1 -1 -1 -1 -1 -1 -1 0 -1 -1 -1
1 1 1 1 2 1 1 1 -1 -1 1 1 -1 -1 -2 -2 -2 -3 -3 -1 -1 -1 -2 -2 -3 -3 -2 -2 -2 -2 -2 -2 -2 -1 -1 -1 -1 -1 -1 -1 -0 0 -0 1
-0 -0 0 1 1 0 0 -1 0 0 1 1 -1 -2 -2 -2 -1 -1 -1 -1 -3 -3 -2 -3 -2 -1 -2 -3 -2 -3 -2 -2 -2 -2 -2 -2 -1 -1 -0 -0 -0 -0 -0 -0
0 0 0 1 0 0 -1 -1 1 1 -1 -2 -1 -1 -2 -3 -2 -3 -3 -4 -3 -3 -3 -3 -3 -3 -2 -2 -2 -1 -1 -2 -1 -1 -1 -1 -1 -1 -1 -1 -1 -1 -0 -0
0 0 1 1 -0 -1 1 1 0 -1 -1 -1 -1 -2 -2 -2 -2 -2 -2 -2 -2 -2 -2 -2 -2 -2 -1 -2 -1 -1 -1 -1 -1 -0 -1 -0 -0 1 1 0 -0 -0 -0 -0
1 1 1 -0 0 1 1 0 -1 -1 -0 -0 -2 -3 -3 -2 -1 -1 -1 -2 -2 -2 -1 -1 -1 -0 -1 -1 -1 -1 -1 -0 -0 1 1 1 0 -0 -1 0 0 0 0 -0
Height
2990 2991 2993 2994 2996 2997 2997 2998 2998 2997 2997 2998 2996 2994 2991 2985 2984 2983 2982 2980 2978 2976 2973 2968 2966 2962 2955 2952 2948 2942 2941 2938 2944 2941 2944 2937 2946 2952 2955 2960 2965 2969 2975 2979
2989 2990 2991 2992 2993 2993 2993 2994 2994 2994 2994 2993 2988 2984 2982 2979 2978 2978 2977 2977 2975 2972 2969 2965 2963 2960 2955 2950 2946 2943 2940 2939 2938 2939 2939 2941 2943 2946 2950 2952 2957 2962 2966 2971
2988 2989 2990 2991 2990 2990 2991 2992 2991 2990 2988 2984 2982 2979 2977 2975 2974 2974 2973 2973 2971 2968 2965 2962 2961 2958 2954 2950 2945 2942 2939 2937 2935 2932 2933 2937 2937 2938 2937 2943 2945 2948 2953 2960
2987 2988 2988 2986 2985 2985 2985 2986 2984 2983 2981 2978 2977 2975 2974 2972 2970 2971 2970 2969 2969 2966 2963 2961 2959 2956 2953 2949 2946 2942 2939 2936 2934 2933 2933 2933 2934 2935 2934 2935 2935 2932 2941 2951
2986 2985 2987 2985 2985 2985 2983 2983 2979 2977 2975 2974 2973 2972 2971 2969 2969 2968 2968 2967 2966 2964 2961 2960 2958 2956 2953 2950 2946 2943 2940 2936 2934 2932 2932 2931 2930 2928 2927 2930 2932 2933 2939 2942
2985 2984 2981 2983 2982 2982 2980 2978 2973 2973 2971 2970 2971 2972 2969 2968 2967 2966 2966 2966 2964 2962 2961 2961 2959 2957 2954 2952 2949 2946 2942 2938 2936 2934 2932 2932 2930 2928 2928 2927 2929 2931 2934 2938
2983 2982 2981 2981 2980 2978 2979 2979 2971 2968 2965 2964 2966 2969 2968 2967 2966 2965 2965 2965 2964 2963 2962 2961 2960 2958 2956 2954 2952 2948 2945 2943 2940 2938 2935 2933 2931 2930 2928 2929 2930 2930 2933 2933
2980 2980 2980 2978 2977 2978 2975 2972 2969 2967 2964 2964 2966 2967 2967 2966 2966 2966 2966 2965 2964 2964 2963 2962 2960 2959 2958 2956 2953 2950 2948 2946 2943 2941 2939 2937 2935 2933 2932 2930 2930 2931 2933 2934
2978 2977 2977 2976 2975 2973 2971 2970 2969 2967 2967 2966 2967 2968 2968 2967 2966 2967 2967 2967 2966 2964 2963 2962 2961 2960 2958 2957 2955 2953 2951 2949 2947 2945 2943 2940 2939 2937 2936 2935 2934 2933 2933 2933
2977 2976 2975 2975 2974 2973 2972 2971 2970 2970 2970 2970 2970 2969 2969 2969 2969 2969 2969 2969 2968 2966 2965 2964 2963 2962 2960 2958 2956 2955 2953 2951 2950 2949 2947 2945 2943 2941 2940 2939 2938 2936 2936 2936
2974 2975 2975 2974 2974 2974 2973 2973 2972 2971 2972 2972 2972 2972 2972 2973 2973 2972 2971 2970 2969 2968 2966 2966 2964 2963 2961 2959 2957 2955 2954 2953 2951 2949 2948 2946 2945 2943 2941 2940 2940 2940 2939 2938
2973 2973 2974 2974 2974 2974 2974 2974 2974 2974 2974 2974 2974 2975 2975 2975 2975 2974 2973 2971 2970 2969 2968 2967 2966 2964 2963 2961 2959 2957 2955 2954 2952 2950 2948 2947 2945 2944 2943 2941 2940 2939 2939 2939
2971 2972 2973 2974 2974 2975 2975 2975 2976 2976 2976 2977 2977 2977 2977 2977 2976 2975 2974 2973 2972 2971 2970 2968 2966 2965 2963 2962 2960 2958 2956 2954 2952 2950 2948 2946 2945 2944 2942 2941 2940 2938 2937 2936
2970 2972 2973 2974 2975 2976 2976 2976 2977 2977 2977 2977 2978 2978 2978 2978 2977 2976 2975 2975 2974 2973 2972 2970 2969 2968 2966 2964 2961 2959 2957 2954 2951 2949 2947 2946 2943 2941 2939 2938 2937 2936 2934 2933
2970 2971 2973 2974 2975 2975 2976 2977 2977 2977 2978 2979 2979 2979 2978 2978 2977 2977 2976 2975 2973 2972 2971 2970 2969 2967 2965 2964 2961 2959 2956 2953 2950 2948 2945 2942 2940 2938 2936 2934 2932 2930 2929 2929
2968 2970 2972 2974 2975 2975 2976 2977 2978 2979 2980 2980 2980 2979 2979 2980 2979 2977 2977 2975 2974 2971 2970 2969 2967 2964 2962 2960 2958 2956 2954 2952 2949 2945 2942 2939 2937 2934 2932 2930 2928 2926 2924 2923
2968 2969 2971 2972 2973 2975 2976 2977 2978 2979 2980 2980 2980 2980 2979 2979 2978 2977 2976 2974 2972 2970 2968 2966 2963 2961 2958 2955 2952 2950 2947 2945 2943 2941 2938 2935 2932 2929 2927 2925 2923 2921 2919 2918
2966 2967 2970 2972 2974 2975 2976 2976 2977 2977 2978 2979 2979 2979 2979 2978 2977 2975 2973 2972 2970 2968 2966 2963 2960 2957 2954 2951 2948 2944 2941 2938 2935 2933 2930 2927 2925 2922 2920 2917 2915 2913 2911 2910
2964 2966 2969 2971 2973 2974 2975 2976 2977 2977 2978 2978 2978 2978 2978 2977 2975 2974 2972 2970 2968 2965 2962 2958 2955 2952 2949 2945 2942 2938 2934 2931 2927 2924 2921 2918 2916 2914 2911 2909 2907 2905 2902 2901
2963 2965 2967 2969 2971 2972 2974 2975 2976 2976 2977 2977 2978 2977 2976 2974 2973 2971 2969 2966 2963 2960 2957 2954 2950 2946 2942 2938 2934 2930 2927 2923 2919 2916 2913 2910 2907 2904 2902 2900 2898 2896 2894 2892
2961 2963 2965 2967 2969 2970 2972 2973 2975 2975 2976 2976 2975 2974 2974 2972 2970 2967 2965 2962 2959 2956 2952 2948 2944 2939 2935 2931 2927 2923 2919 2915 2912 2908 2905 2901 2898 2896 2893 2891 2889 2887 2885 2883
2960 2962 2964 2966 2968 2970 2971 2973 2974 2974 2974 2973 2972 2972 2971 2969 2966 2964 2961 2958 2954 2950 2945 2941 2937 2932 2928 2924 2919 2915 2911 2907 2904 2900 2897 2894 2891 2888 2885 2883 2881 2878 2877 2875
2959 2961 2963 2965 2967 2969 2971 2972 2973 2972 2971 2971 2970 2969 2967 2965 2962 2959 2956 2952 2947 2943 2939 2934 2930 2925 2921 2916 2912 2908 2904 2900 2896 2893 2889 2886 2882 2880 2877 2875 2872 2870 2868 2866
2959 2961 2962 2964 2966 2968 2970 2970 2970 2969 2969 2968 2967 2966 2964 2961 2958 2954 2950 2945 2941 2936 2932 2927 2923 2918 2913 2909 2905 2900 2896 2892 2889 2885 2881 2878 2875 2872 2869 2866 2864 2861 2859 2858
2958 2960 2962 2964 2966 2967 2967 2967 2967 2966 2966 2965 2964 2962 2959 2956 2952 2947 2943 2939 2934 2929 2924 2919 2915 2910 2906 2901 2897 2893 2888 2884 2881 2877 2873 2869 2866 2863 2860 2857 2855 2853 2851 2849
2957 2958 2960 2962 2964 2964 2964 2964 2964 2963 2962 2961 2959 2957 2954 2950 2946 2941 2937 2932 2927 2922 2917 2912 2907 2903 2898 2893 2889 2884 2880 2876 2872 2868 2864 2860 2856 2853 2851 2848 2846 2843 2841 2840
2955 2957 2958 2960 2961 2961 2961 2961 2960 2959 2958 2956 2954 2951 2948 2944 2939 2935 2930 2925 2920 2915 2910 2905 2900 2895 2890 2885 2880 2876 2871 2866 2862 2858 2854 2850 2846 2843 2840 2838 2835 2833 2832 2830